Regional Weather Roundup
Issued by NWS San Diego, CA

Home | Current Version | Previous Version | Text Only | Print | Product List | Glossary On
Versions: 1 2 3 4 5 6 7 8 9 10 11 12 13 14 15 16 17 18 19 20 21 22 23 24 25 26 27 28 29 30 31 32 33 34 35 36 37 38 39 40 41 42 43 44 45 46 47 48 49 50
000
ASUS46 KSGX 200211
RWRSGX

SAN DIEGO HOURLY WEATHER ROUNDUP
NATIONAL WEATHER SERVICE SAN DIEGO CA
600 PM PST SUN NOV 19 2017

NOTE: "FAIR" INDICATES FEW OR NO CLOUDS BELOW 12,000 FEET WITH NO
SIGNIFICANT WEATHER AND/OR OBSTRUCTIONS TO VISIBILITY.

CAZ042-043-060-061-PZZ750-775-200300-

GREATER SAN DIEGO AREA

CITY           SKY/WX    TMP DP  RH WIND       PRES   REMARKS
SAN DIEGO AP   PTCLDY    65  46  50 N3        29.98R
NATIONAL CITY    N/A     66  40  38 CALM      29.99R
CHULA VISTA      N/A     65  51  62 CALM      29.89R
IMPERIAL BEACH CLEAR     57  50  77 CALM      29.98R
BROWN FIELD    CLEAR     63  47  55 W6        29.97R
MIRAMAR MCAS   MOCLDY    64  43  46 N5        29.97R
MONTGOMERY FLD CLEAR     67  38  34 N8        29.98R

$$

NORTH SAN DIEGO COUNTY

CITY           SKY/WX    TMP DP  RH WIND       PRES   REMARKS
CAMP PENDLETON CLEAR     58  41  53 S3        29.97R
OCEANSIDE AP   CLEAR     60  56  86 CALM      29.97R
OCEANSIDE HBR    N/A     62  59  90 CALM      30.00R
VISTA            N/A     61  44  54 CALM      29.94S
CARLSBAD       CLEAR     61  50  67 CALM      29.97R
DEL MAR          N/A     60  54  80 CALM      29.99R
LA JOLLA SCRIP   N/A     61  56  84 NW2       29.97R
FALLBROOK        N/A     62  49  60 CALM      29.97R
ESCONDIDO        N/A     65  45  47 W2        29.99R
SAN MARCOS       N/A     64  47  55 CALM      30.00R

$$

EAST SAN DIEGO COUNTY

CITY           SKY/WX    TMP DP  RH WIND       PRES   REMARKS
RAMONA         CLEAR     61  32  33 CALM      29.99R
SANTEE LAKES     N/A     66  42  42 CALM      29.95R
LA MESA          N/A     65  38  35 CALM      29.91R
JAMUL            N/A     60  39  45 CALM      29.98R
DESCANSO N       N/A     47  26  43 E3        29.96R
MT. LAGUNA OBS   N/A     55  13  18 SW3       29.93R
CAMPO            N/A     54  14  20 NE7       30.00R

$$

ORANGE COUNTY AND THE LOS ANGELES BASIN

CITY           SKY/WX    TMP DP  RH WIND       PRES   REMARKS
JOHN WAYNE AP  PTCLDY    63  53  70 S3        29.98R
LAGUNA BEACH     N/A     59  47  65 CALM      29.94R
LAKE FOREST FR   N/A     63  37  38 CALM      29.88R
HUNTINGTON BCH   N/A     60  47  63 CALM      30.00R
LOS ALAMITOS   FAIR      63  42  46 NW3       29.98R
FULLERTON      CLEAR     66  32  28 W3        29.98R
LONG BEACH     CLEAR     65  48  54 W10       29.98R
L.A. AP        PTCLDY    63  52  67 W9        29.99R
L.A. DOWNTOWN  CLEAR     62  50  64 CALM      29.98R

$$

THE INLAND EMPIRE

CITY           SKY/WX    TMP DP  RH WIND       PRES   REMARKS
CORONA         CLEAR     57  35  43 CALM      29.98R
CHINO          CLEAR     62  37  39 W5        29.99R
ONTARIO        PTCLDY    67  25  20 W6        29.98R
SAN BERNARDINO MOCLDY    68   9  10 E6        29.99R
RIVERSIDE AP   CLEAR     66  37  34 CALM      29.98R
MORENO VALLEY    N/A     65  23  20 CALM      28.12R
MARCH ARB      CLEAR     57  11  16 N3        29.99R
HORSETHIEF CYN   N/A     59  10  14 W5        29.99R
PERRIS           N/A     67  25  20 NE2         N/A
HEMET EAST       N/A     63  16  16 CALM      30.04R
FRENCH VALLEY  FAIR      63  37  39 CALM      29.99S
TEMECULA         N/A     66  45  47 S1        30.03R

$$

SAN BERNARDINO AND RIVERSIDE COUNTY MOUNTAINS

CITY           SKY/WX    TMP DP  RH WIND       PRES   REMARKS
BIG BEAR AP    PTCLDY    36   1  23 CALM      30.19R

$$

SOUTHERN DESERT INCLUDING THE COACHELLA VALLEY

CITY           SKY/WX    TMP DP  RH WIND       PRES   REMARKS
PALM SPRINGS   CLEAR     67  26  21 N3        30.00R
THOUSAND PALMS   N/A     64  15  15 N2        29.96R
PALM DESERT      N/A     66  32  27 CALM        N/A
THERMAL        PTCLDY    55  33  43 W3        29.96R
BLYTHE         PTCLDY    63   8  11 NW8       29.99R
IMPERIAL AP    PTCLDY    64  26  23 CALM      29.97R
EL CENTRO NAS  PTCLDY    65  22  19 CALM      29.99R
YUMA AZ        CLEAR     67  15  13 NW5       29.96R
MEXICALI       CLEAR     64  23  20 W6        29.98R

$$

UPPER DESERT

CITY           SKY/WX    TMP DP  RH WIND       PRES   REMARKS
VICTORVILLE AP MOCLDY    54   1  12 CALM      30.07F
HESPERIA         N/A     49  13  23 SW3       30.24R
PALMDALE       PTCLDY    49   6  17 W6        30.08R
LANCASTER      MOCLDY    46   5  18 W8        30.08R
EDWARDS AFB    MOCLDY    52   4  14 W6        30.05R
DAGGETT        PTCLDY    53   5  14 SE3       30.07R
29 PALMS N     PTCLDY    56   4  12 W6        30.12R
NEEDLES        PTCLDY    64   9  11 NW7       30.03R

$$

REGIONAL REPORTS

CITY           SKY/WX    TMP DP  RH WIND       PRES   REMARKS
SANTA BARBARA  PTCLDY    57  54  89 S8        29.99S
SANDBERG       PTCLDY    51   9  18 NE9       30.12R
LAS VEGAS NV   CLOUDY    57  12  17 S3        30.07R
PHOENIX AZ     CLEAR     69  26  20 SW5       29.93R
TIJUANA          N/A    N/A N/A N/A MISG        N/A
ENSENADA NW      N/A     62  32  33 CALM      29.90R

$$

OFFSHORE ISLANDS

CITY           SKY/WX    TMP DP  RH WIND       PRES   REMARKS
CATALINA ARPT  CLEAR     62  28  27 NW9       30.03R
SAN NICOLAS IS CLEAR     55  32  41 W17       30.03R

$$

MARINE AND OFFSHORE BUOY REPORTS

STATION/POSITION SKY/WX   TEMP    WIND        PRES    VSBY  SWELL
                          AIR SEA DIR/SP/G                  HT/PER/DIR
                          (F)     (DEG/KT/KT) (MB)    (MI)  (FT/S/D)
TANNER BANKS               61 63  250/ 17/ 19 1016.6R         3/310/10
S CLEMENTE BASIN           65 65  300/ 10/ 12 1015.2R         3/280/ 7
SAN NICOLAS IS.               62                N/A           2/220/17
SO. S. ROSA ISLA           60 61  300/ 19/ 23 1016.6R         3/290/11
W. S. BARBARA CH           59 60  320/ 17/ 21 1016.5
M. S. BARBARA CH           61 60  250/ 14/ 16 1016.4
S. MONICA BASIN               65  300/ 10/ 12 1015.6
S PEDRO CHANNEL               61                N/A           2/180/13
CMP PENDLETON NS              62                N/A           2/220/15
OCEANSIDE OFFSHR              63                N/A           2/210/17
TORREY PINES OTR              65                N/A           2/230/17
SAN DIEGO BAY                 68              1015.3R
POINT LOMA SOUTH              63                N/A           2/210/13

$$





USA.gov is the U.S. government's official web portal to all federal, state and local government web resources and services.